Location: Antioch Baptist Church
(32.6696°N, 85.7327°W)
Time: 11:52:06
(UTC+00:00)

Lacrosse 5 rocket - Pass Details

Date: 14 July 2020
Orbit: 464 x 632 km, 57.0° (Epoch: 08 August)

Event Time Altitude Azimuth Distance (km) Brightness Sun altitude
Rises 04:34:47 0° 330° (NNW) 2,672 5.9 -32.9°
Reaches altitude 10° 04:37:13 10° 341° (NNW) 1,748 4.7 -33.1°
Enters shadow 04:38:13 16° 349° (N) 1,403 4.1 -33.2°
